This is the latest recevied weather packets stored in our database for station/object ED1ZAI-13. If no packets are shown the sender has not sent any weather packets the latest 10 day(s).
| Time | Temp. | Humidity | Pressure | Rain* | Wind** | Luminosity | Snow |
|---|---|---|---|---|---|---|---|
| 1777447004 | 11.11° C | 85% | 1008.9 hPa | 0 mm | - | - | - |
| 1777446406 | 11.11° C | 86% | 1008.9 hPa | 0 mm | - | - | - |
| 1777445805 | 10.56° C | 86% | 1009.1 hPa | 0 mm | - | - | - |
| 1777445205 | 10.56° C | 86% | 1008.9 hPa | 0 mm | - | - | - |
| 1777444605 | 10.56° C | 86% | 1008.9 hPa | 0 mm | - | - | - |
| 1777444005 | 11.11° C | 86% | 1008.6 hPa | 0 mm | - | - | - |
| 1777443404 | 11.11° C | 87% | 1008.5 hPa | 0 mm | - | - | - |
| 1777442806 | 11.11° C | 86% | 1008.3 hPa | 0 mm | - | - | - |
| 1777442204 | 11.11° C | 86% | 1008.3 hPa | 0 mm | - | - | - |
| 1777441603 | 11.11° C | 86% | 1008.3 hPa | 0 mm | - | - | - |
| 1777441005 | 11.11° C | 86% | 1008.3 hPa | 0 mm | - | - | - |
| 1777440405 | 11.11° C | 87% | 1008.4 hPa | 0 mm | - | - | - |
| 1777439805 | 11.11° C | 86% | 1008.3 hPa | 0 mm | - | - | - |
| 1777439204 | 11.67° C | 86% | 1008.3 hPa | 0 mm | - | - | - |
| 1777438604 | 11.67° C | 84% | 1008.3 hPa | 0.51 mm | - | - | - |
| 1777438004 | 11.67° C | 84% | 1008.2 hPa | 0.51 mm | - | - | - |
| 1777437403 | 12.22° C | 84% | 1008.2 hPa | 0.51 mm | - | - | - |
| 1777436803 | 12.22° C | 84% | 1008.3 hPa | 0.51 mm | - | - | - |
| 1777436205 | 12.22° C | 84% | 1008.2 hPa | 0.51 mm | - | - | - |
| 1777435899 | 12.22° C | 84% | 1008.2 hPa | 0.51 mm | - | - | - |
| 1777435298 | 12.22° C | 83% | 1008.2 hPa | 0.51 mm | - | - | - |
| 1777434698 | 12.22° C | 84% | 1008.4 hPa | 0 mm | - | - | - |
| 1777433956 | 12.22° C | 85% | 1008.5 hPa | 1.02 mm | - | - | - |
| 1777433355 | 11.67° C | 83% | 1008.4 hPa | 1.02 mm | - | - | - |
| 1777432756 | 11.67° C | 84% | 1008.5 hPa | 1.02 mm | - | - | - |
* Rain latest hour (hover to see other rain measurements)
** Current wind speed in m/s (hover to see current wind gust speed)